Weather History for Marrakech, Morocco

Change the Weather History Date:

Saturday, May 31, 2014

  Actual Average Record
Temperature  
Mean Temperature 75 °F -  
Max Temperature 91 °F 90 °F 100 °F (2000)
Min Temperature 59 °F 63 °F 53 °F (2013)
Cooling Degree Days 10    
Growing Degree Days 25 (Base 50)    
Moisture  
Dew Point 53 °F    
Average Humidity 53    
Maximum Humidity 82    
Minimum Humidity 13    
Precipitation  
Precipitation 0.00 in 0.01 in - ()
Sea Level Pressure  
Sea Level Pressure 29.96 in    
Wind  
Wind Speed 6 mph ()    
Max Wind Speed 17 mph    
Max Gust Speed 22 mph    
Visibility 6.2 miles    
Events      
Averages and records for this station are not official NWS values.
T = Trace of Precipitation, MM = Missing Value Source: Averaged Metar Reports

Daily Weather History Graph

Daily Weather History Graph

Search for Another Location

Airport:

Trip Planner

Search our weather history database for the weather conditions in past years. The results will help you decide how hot, cold, wet, or windy it might be!

Date:

Astronomy

May. 31, 2014 Rise Set
Actual Time 6:28 AM WEST 8:31 PM WEST
Civil Twilight 6:00 AM WEST 8:59 PM WEST
Nautical Twilight 5:27 AM WEST 9:33 PM WEST
Astronomical Twilight 4:51 AM WEST 10:09 PM WEST
Moon 8:48 AM WEST (5/31) 10:46 PM WEST (5/31)
Length of Visible Light 14h 58m
Length of Day
14h 03m
Waxing Crescent, 7% of the Moon is Illuminated
May 31
Waxing Crescent
Jun 5
First Quarter
Jun 13
Full
Jun 19
Last Quarter
Jun 27
New

Hourly Weather History & Observations

Time (WEST) Temp. Heat Index Dew Point Humidity Pressure Visibility Wind Dir Wind Speed Gust Speed Precip Events Conditions
12:00 AM 71.6 °F - 57.2 °F 60% 30.04 in - NNE 9.2 mph - N/A   Clear
12:30 AM 71.6 °F - 57.2 °F 60% 30.04 in - NNE 8.1 mph - N/A   Clear
1:00 AM 70 °F - 57 °F 55% 29.98 in 6 mi NNE 4.6 mph - -  
1:00 AM 69.8 °F - 57.2 °F 64% 30.04 in - NNE 4.6 mph - N/A   Clear
1:30 AM 69.8 °F - 57.2 °F 64% 30.01 in 6.2 mi NNE 4.6 mph - N/A   Unknown
2:00 AM 69.8 °F - 57.2 °F 64% 30.01 in 6.2 mi NE 4.6 mph - N/A   Unknown
2:30 AM 68.0 °F - 57.2 °F 68% 30.01 in 6.2 mi North 5.8 mph - N/A   Unknown
3:00 AM 66.2 °F - 55.4 °F 68% 30.01 in - North 4.6 mph - N/A   Clear
3:30 AM 66.2 °F - 55.4 °F 68% 29.98 in - NNE 4.6 mph - N/A   Clear
4:00 AM 64 °F - 56 °F 67% 29.96 in 6 mi WSW 5.8 mph - -  
4:00 AM 64.4 °F - 55.4 °F 73% 29.98 in - WSW 5.8 mph - N/A   Clear
4:30 AM 62.6 °F - 55.4 °F 77% 29.98 in 6.2 mi WSW 4.6 mph - N/A   Unknown
5:00 AM 62.6 °F - 55.4 °F 77% 29.98 in - WSW 4.6 mph - N/A   Clear
5:30 AM 60.8 °F - 55.4 °F 82% 29.98 in - WSW 5.8 mph - N/A   Clear
6:00 AM 60.8 °F - 55.4 °F 82% 29.98 in - SW 4.6 mph - N/A   Clear
6:30 AM 60.8 °F - 55.4 °F 82% 29.98 in - SW 4.6 mph - N/A   Clear
7:00 AM 60 °F - 55 °F 78% 29.97 in 6 mi WSW 4.6 mph - -  
7:00 AM 60.8 °F - 55.4 °F 82% 29.98 in - West 4.6 mph - N/A   Clear
7:30 AM 60.8 °F - 55.4 °F 82% 29.98 in - WSW 6.9 mph - N/A   Clear
8:00 AM 60.8 °F - 55.4 °F 82% 30.01 in - WSW 4.6 mph - N/A   Clear
8:30 AM 62.6 °F - 55.4 °F 77% 30.01 in - West 4.6 mph - N/A   Clear
9:00 AM 64.4 °F - 55.4 °F 73% 30.01 in - WSW 3.5 mph - N/A   Clear
9:30 AM 68.0 °F - 57.2 °F 68% 30.01 in - Variable 2.3 mph - N/A   Clear
10:00 AM 68 °F - 56 °F 58% 29.95 in 6 mi West 4.6 mph - -  
10:00 AM 68.0 °F - 57.2 °F 68% 30.01 in - Variable 3.5 mph - N/A   Clear
10:30 AM 69.8 °F - 55.4 °F 60% 29.98 in - NW 3.5 mph - N/A   Clear
11:00 AM 71.6 °F - 57.2 °F 60% 30.01 in - West 3.5 mph - N/A   Clear
11:30 AM 73.4 °F - 57.2 °F 57% 29.98 in - WNW 5.8 mph - N/A   Clear
12:00 PM 75.2 °F - 55.4 °F 50% 29.98 in - NNW 5.8 mph - N/A   Clear
12:30 PM 77.0 °F - 55.4 °F 47% 29.98 in - West 4.6 mph - N/A   Clear
1:00 PM 78 °F - 55 °F 34% 29.89 in 6 mi WNW 3.5 mph - -   Scattered Clouds
1:00 PM 77.0 °F - 55.4 °F 47% 29.98 in 6.2 mi Variable 4.6 mph - N/A   Partly Cloudy
1:30 PM 80.6 °F 80.5 °F 55.4 °F 42% 29.95 in 6.2 mi Calm Calm - N/A   Partly Cloudy
2:00 PM 82.4 °F 81.4 °F 53.6 °F 37% 29.95 in 6.2 mi Variable 4.6 mph - N/A   Partly Cloudy
2:30 PM 82.4 °F 81.4 °F 53.6 °F 37% 29.95 in 6.2 mi Variable 4.6 mph - N/A   Partly Cloudy
3:00 PM 84.2 °F - 51.8 °F 33% 29.92 in 6.2 mi Variable 4.6 mph - N/A   Partly Cloudy
3:30 PM 86.0 °F - 51.8 °F 31% 29.92 in 6.2 mi WNW 6.9 mph - N/A   Partly Cloudy
4:00 PM 87 °F - 44 °F 13% 29.81 in 6 mi NW 6.9 mph - -   Scattered Clouds
4:00 PM 87.8 °F - 44.6 °F 22% 29.92 in 6.2 mi NW 8.1 mph - N/A   Partly Cloudy
4:30 PM 89.6 °F - 39.2 °F 17% 29.89 in 6.2 mi ENE 9.2 mph - N/A   Unknown
5:00 PM 89.6 °F - 41.0 °F 18% 29.89 in 6.2 mi North 10.4 mph - N/A   Partly Cloudy
5:30 PM 89.6 °F - 41.0 °F 18% 29.89 in 6.2 mi NNW 9.2 mph - N/A   Partly Cloudy
6:00 PM 87.8 °F - 41.0 °F 19% 29.89 in 6.2 mi North 10.4 mph 21.9 mph N/A   Partly Cloudy
6:30 PM 87.8 °F - 46.4 °F 24% 29.89 in 6.2 mi North 11.5 mph - N/A   Partly Cloudy
7:00 PM 85 °F - 51 °F 21% 29.80 in 6 mi North 13.8 mph - -   Scattered Clouds
7:00 PM 86.0 °F - 51.8 °F 31% 29.89 in 6.2 mi North 13.8 mph - N/A   Partly Cloudy
7:30 PM 84.2 °F - 50.0 °F 30% 29.89 in 6.2 mi North 15.0 mph - N/A   Partly Cloudy
8:00 PM 82.4 °F - 51.8 °F 35% 29.92 in 6.2 mi North 16.1 mph - N/A   Partly Cloudy
8:30 PM 78.8 °F - 51.8 °F 39% 29.92 in 6.2 mi North 17.3 mph - N/A   Partly Cloudy
9:00 PM 77.0 °F - 53.6 °F 44% 29.95 in 6.2 mi North 12.7 mph - N/A   Partly Cloudy
9:30 PM 75.2 °F - 53.6 °F 47% 29.95 in 6.2 mi North 12.7 mph - N/A   Partly Cloudy
10:00 PM 73 °F - 54 °F 40% 29.92 in 6 mi NNE 8.1 mph - -   Scattered Clouds
10:00 PM 73.4 °F - 53.6 °F 50% 29.98 in 6.2 mi NNE 9.2 mph - N/A   Partly Cloudy
10:30 PM 71.6 °F - 53.6 °F 53% 29.98 in 6.2 mi NE 11.5 mph - N/A   Partly Cloudy
11:00 PM 69.8 °F - 55.4 °F 60% 29.98 in 6.2 mi NNE 8.1 mph - N/A   Partly Cloudy
11:30 PM 69.8 °F - 55.4 °F 60% 29.98 in 6.2 mi NNE 6.9 mph - N/A   Partly Cloudy